#Datum;Uhrzeit;WR;Pac;DaySum;Status;WR;Pac;DaySum;Status;Pdc1;Udc;Temp;WR;Pac;DaySum;Status;Pdc1;Udc;Temp;WR;Pac;DaySum;Status;Pdc1;Udc;Temp;WR;Pac;DaySum;Status;Pdc1;Pdc2;Udc1;Udc2;Temp;WR;Pac;DaySum;Status;Pdc1;Pdc2;Udc1;Udc2;Temp;WR;Pac;DaySum;Status;Pdc1;Udc;Temp;WR;Pac;DaySum;Status;Pdc1;Udc;Temp;WR;Pac;DaySum;Status;Pdc1;Udc;Temp
04.01.19;23:55:00;1;545;12593;0;2;0;16;0;0;0;0;3;0;8;0;0;0;0;4;0;5;0;0;0;0;5;0;311;0;0;0;0;0;0;6;0;115;0;0;0;0;0;0;7;0;15;0;0;0;0;8;0;28;0;0;0;0;9;0;10;0;0;0;0
04.01.19;23:50:00;1;284;12539;0;2;0;16;0;0;0;0;3;0;8;0;0;0;0;4;0;5;0;0;0;0;5;0;311;0;0;0;0;0;0;6;0;115;0;0;0;0;0;0;7;0;15;0;0;0;0;8;0;28;0;0;0;0;9;0;10;0;0;0;0
04.01.19;23:45:00;1;284;12516;0;2;0;16;0;0;0;0;3;0;8;0;0;0;0;4;0;5;0;0;0;0;5;0;311;0;0;0;0;0;0;6;0;115;0;0;0;0;0;0;7;0;15;0;0;0;0;8;0;28;0;0;0;0;9;0;10;0;0;0;0
04.01.19;23:40:00;1;313;12492;0;2;0;16;0;0;0;0;3;0;8;0;0;0;0;4;0;5;0;0;0;0;5;0;311;0;0;0;0;0;0;6;0;115;0;0;0;0;0;0;7;0;15;0;0;0;0;8;0;28;0;0;0;0;9;0;10;0;0;0;0
04.01.19;23:35:00;1;689;12449;0;2;0;16;0;0;0;0;3;0;8;0;0;0;0;4;0;5;0;0;0;0;5;0;311;0;0;0;0;0;0;6;0;115;0;0;0;0;0;0;7;0;15;0;0;0;0;8;0;28;0;0;0;0;9;0;10;0;0;0;0
04.01.19;23:30:00;1;284;12418;0;2;0;16;0;0;0;0;3;0;8;0;0;0;0;4;0;5;0;0;0;0;5;0;311;0;0;0;0;0;0;6;0;115;0;0;0;0;0;0;7;0;15;0;0;0;0;8;0;28;0;0;0;0;9;0;10;0;0;0;0
04.01.19;23:25:00;1;285;12394;0;2;0;16;0;0;0;0;3;0;8;0;0;0;0;4;0;5;0;0;0;0;5;0;311;0;0;0;0;0;0;6;0;115;0;0;0;0;0;0;7;0;15;0;0;0;0;8;0;28;0;0;0;0;9;0;10;0;0;0;0
04.01.19;23:20:00;1;489;12370;0;2;0;16;0;0;0;0;3;0;8;0;0;0;0;4;0;5;0;0;0;0;5;0;311;0;0;0;0;0;0;6;0;115;0;0;0;0;0;0;7;0;15;0;0;0;0;8;0;28;0;0;0;0;9;0;10;0;0;0;0
04.01.19;23:15:00;1;285;12319;0;2;0;16;0;0;0;0;3;0;8;0;0;0;0;4;0;5;0;0;0;0;5;0;311;0;0;0;0;0;0;6;0;115;0;0;0;0;0;0;7;0;15;0;0;0;0;8;0;28;0;0;0;0;9;0;10;0;0;0;0
04.01.19;23:10:00;1;308;12296;0;2;0;16;0;0;0;0;3;0;8;0;0;0;0;4;0;5;0;0;0;0;5;0;311;0;0;0;0;0;0;6;0;115;0;0;0;0;0;0;7;0;15;0;0;0;0;8;0;28;0;0;0;0;9;0;10;0;0;0;0
04.01.19;23:05:00;1;792;12270;0;2;0;16;0;0;0;0;3;0;8;0;0;0;0;4;0;5;0;0;0;0;5;0;311;0;0;0;0;0;0;6;0;115;0;0;0;0;0;0;7;0;15;0;0;0;0;8;0;28;0;0;0;0;9;0;10;0;0;0;0
04.01.19;23:00:00;1;352;12217;0;2;0;16;0;0;0;0;3;0;8;0;0;0;0;4;0;5;0;0;0;0;5;0;311;0;0;0;0;0;0;6;0;115;0;0;0;0;0;0;7;0;15;0;0;0;0;8;0;28;0;0;0;0;9;0;10;0;0;0;0
04.01.19;22:55:00;1;381;12187;0;2;0;16;0;0;0;0;3;0;8;0;0;0;0;4;0;5;0;0;0;0;5;0;311;2;0;0;0;0;0;6;0;115;2;0;0;0;0;0;7;0;15;0;0;0;0;8;0;28;0;0;0;0;9;0;10;0;0;0;0
04.01.19;22:50:00;1;579;12155;0;2;0;16;0;0;0;0;3;0;8;0;0;0;0;4;0;5;0;0;0;0;5;0;311;2;0;0;0;0;0;6;0;115;2;0;0;0;0;0;7;0;15;0;0;0;0;8;0;28;0;0;0;0;9;0;10;0;0;0;0
04.01.19;22:45:00;1;349;12100;0;2;0;16;0;0;0;0;3;0;8;0;0;0;0;4;0;5;0;0;0;0;5;0;311;2;0;0;0;0;0;6;0;115;2;0;0;0;0;0;7;0;15;0;0;0;0;8;0;28;0;0;0;0;9;0;10;0;0;0;0
04.01.19;22:40:00;1;350;12071;0;2;0;16;0;0;0;0;3;0;8;0;0;0;0;4;0;5;0;0;0;0;5;0;311;2;0;0;0;0;0;6;0;115;2;0;0;0;0;0;7;0;15;0;0;0;0;8;0;28;0;0;0;0;9;0;10;0;0;0;0
04.01.19;22:35:00;1;457;12042;0;2;0;16;0;0;0;0;3;0;8;0;0;0;0;4;0;5;0;0;0;0;5;0;311;2;0;0;0;0;0;6;0;115;2;0;0;0;0;0;7;0;15;0;0;0;0;8;0;28;0;0;0;0;9;0;10;0;0;0;0
04.01.19;22:30:00;1;711;11989;0;2;0;16;0;0;0;0;3;0;8;0;0;0;0;4;0;5;0;0;0;0;5;0;311;2;0;0;0;0;0;6;0;115;2;0;0;0;0;0;7;0;15;0;0;0;0;8;0;28;0;0;0;0;9;0;10;0;0;0;0
04.01.19;22:25:00;1;323;11956;0;2;0;16;0;0;0;0;3;0;8;0;0;0;0;4;0;5;0;0;0;0;5;0;311;2;0;0;0;0;0;6;0;115;2;0;0;0;0;0;7;0;15;0;0;0;0;8;0;28;0;0;0;0;9;0;10;0;0;0;0
04.01.19;22:20:00;1;284;11930;0;2;0;16;0;0;0;0;3;0;8;0;0;0;0;4;0;5;0;0;0;0;5;0;311;2;0;0;0;0;0;6;0;115;2;0;0;0;0;0;7;0;15;0;0;0;0;8;0;28;0;0;0;0;9;0;10;0;0;0;0
04.01.19;22:15:00;1;504;11906;0;2;0;16;0;0;0;0;3;0;8;0;0;0;0;4;0;5;0;0;0;0;5;0;311;2;0;0;0;0;0;6;0;115;2;0;0;0;0;0;7;0;15;0;0;0;0;8;0;28;0;0;0;0;9;0;10;0;0;0;0
04.01.19;22:10:00;1;283;11855;0;2;0;16;0;0;0;0;3;0;8;0;0;0;0;4;0;5;0;0;0;0;5;0;311;2;0;0;0;0;0;6;0;115;2;0;0;0;0;0;7;0;15;0;0;0;0;8;0;28;0;0;0;0;9;0;10;0;0;0;0
04.01.19;22:05:00;1;323;11831;0;2;0;16;0;0;0;0;3;0;8;0;0;0;0;4;0;5;0;0;0;0;5;0;311;2;0;0;0;0;0;6;0;115;2;0;0;0;0;0;7;0;15;0;0;0;0;8;0;28;0;0;0;0;9;0;10;0;0;0;0
04.01.19;22:00:00;1;546;11804;0;2;0;16;0;0;0;0;3;0;8;0;0;0;0;4;0;5;0;0;0;0;5;0;311;2;0;0;0;0;0;6;0;115;2;0;0;0;0;0;7;0;15;0;0;0;0;8;0;28;0;0;0;0;9;0;10;0;0;0;0
04.01.19;21:55:00;1;329;11749;0;2;0;16;0;0;0;0;3;0;8;0;0;0;0;4;0;5;0;0;0;0;5;0;311;2;0;0;0;0;0;6;0;115;2;0;0;0;0;0;7;0;15;0;0;0;0;8;0;28;0;0;0;0;9;0;10;0;0;0;0
04.01.19;21:50:00;1;285;11721;0;2;0;16;0;0;0;0;3;0;8;0;0;0;0;4;0;5;0;0;0;0;5;0;311;2;0;0;0;0;0;6;0;115;2;0;0;0;0;0;7;0;15;0;0;0;0;8;0;28;0;0;0;0;9;0;10;0;0;0;0
04.01.19;21:45:00;1;686;11698;0;2;0;16;0;0;0;0;3;0;8;0;0;0;0;4;0;5;0;0;0;0;5;0;311;2;0;0;0;0;0;6;0;115;2;0;0;0;0;0;7;0;15;0;0;0;0;8;0;28;0;0;0;0;9;0;10;0;0;0;0
04.01.19;21:40:00;1;284;11648;0;2;0;16;0;0;0;0;3;0;8;0;0;0;0;4;0;5;0;0;0;0;5;0;311;2;0;0;0;0;0;6;0;115;2;0;0;0;0;0;7;0;15;0;0;0;0;8;0;28;0;0;0;0;9;0;10;0;0;0;0
04.01.19;21:35:00;1;284;11624;0;2;0;16;0;0;0;0;3;0;8;0;0;0;0;4;0;5;0;0;0;0;5;0;311;2;0;0;0;0;0;6;0;115;2;0;0;0;0;0;7;0;15;0;0;0;0;8;0;28;0;0;0;0;9;0;10;0;0;0;0
04.01.19;21:30:00;1;654;11600;0;2;0;16;0;0;0;0;3;0;8;0;0;0;0;4;0;5;0;0;0;0;5;0;311;2;0;0;0;0;0;6;0;115;2;0;0;0;0;0;7;0;15;0;0;0;0;8;0;28;0;0;0;0;9;0;10;0;0;0;0
04.01.19;21:25:00;1;290;11550;0;2;0;16;0;0;0;0;3;0;8;0;0;0;0;4;0;5;0;0;0;0;5;0;311;2;0;0;0;0;0;6;0;115;2;0;0;0;0;0;7;0;15;0;0;0;0;8;0;28;0;0;0;0;9;0;10;0;0;0;0
04.01.19;21:20:00;1;290;11525;0;2;0;16;0;0;0;0;3;0;8;0;0;0;0;4;0;5;0;0;0;0;5;0;311;2;0;0;0;0;0;6;0;115;2;0;0;0;0;0;7;0;15;0;0;0;0;8;0;28;0;0;0;0;9;0;10;0;0;0;0
04.01.19;21:15:00;1;342;11501;0;2;0;16;0;0;0;0;3;0;8;0;0;0;0;4;0;5;0;0;0;0;5;0;311;2;0;0;0;0;0;6;0;115;2;0;0;0;0;0;7;0;15;0;0;0;0;8;0;28;0;0;0;0;9;0;10;0;0;0;0
04.01.19;21:10:00;1;469;11473;0;2;0;16;0;0;0;0;3;0;8;0;0;0;0;4;0;5;0;0;0;0;5;0;311;2;0;0;0;0;0;6;0;115;2;0;0;0;0;0;7;0;15;0;0;0;0;8;0;28;0;0;0;0;9;0;10;0;0;0;0
04.01.19;21:05:00;1;311;11422;0;2;0;16;0;0;0;0;3;0;8;0;0;0;0;4;0;5;0;0;0;0;5;0;311;2;0;0;0;0;0;6;0;115;2;0;0;0;0;0;7;0;15;0;0;0;0;8;0;28;0;0;0;0;9;0;10;0;0;0;0
04.01.19;21:00:00;1;327;11395;0;2;0;16;0;0;0;0;3;0;8;0;0;0;0;4;0;5;0;0;0;0;5;0;311;2;0;0;0;0;0;6;0;115;2;0;0;0;0;0;7;0;15;0;0;0;0;8;0;28;0;0;0;0;9;0;10;0;0;0;0
04.01.19;20:55:00;1;689;11368;0;2;0;16;0;0;0;0;3;0;8;0;0;0;0;4;0;5;0;0;0;0;5;0;311;2;0;0;0;0;0;6;0;115;2;0;0;0;0;0;7;0;15;0;0;0;0;8;0;28;0;0;0;0;9;0;10;0;0;0;0
04.01.19;20:50:00;1;352;11310;0;2;0;16;0;0;0;0;3;0;8;0;0;0;0;4;0;5;0;0;0;0;5;0;311;2;0;0;0;0;0;6;0;115;2;0;0;0;0;0;7;0;15;0;0;0;0;8;0;28;0;0;0;0;9;0;10;0;0;0;0
04.01.19;20:45:00;1;350;11279;0;2;0;16;0;0;0;0;3;0;8;0;0;0;0;4;0;5;0;0;0;0;5;0;311;2;0;0;0;0;0;6;0;115;2;0;0;0;0;0;7;0;15;0;0;0;0;8;0;28;0;0;0;0;9;0;10;0;0;0;0
04.01.19;20:40:00;1;573;11250;0;2;0;16;0;0;0;0;3;0;8;0;0;0;0;4;0;5;0;0;0;0;5;0;311;2;0;0;0;0;0;6;0;115;2;0;0;0;0;0;7;0;15;0;0;0;0;8;0;28;0;0;0;0;9;0;10;0;0;0;0
04.01.19;20:35:00;1;362;11189;0;2;0;16;0;0;0;0;3;0;8;0;0;0;0;4;0;5;0;0;0;0;5;0;311;2;0;0;0;0;0;6;0;115;2;0;0;0;0;0;7;0;15;0;0;0;0;8;0;28;0;0;0;0;9;0;10;0;0;0;0
04.01.19;20:30:00;1;351;11159;0;2;0;16;0;0;0;0;3;0;8;0;0;0;0;4;0;5;0;0;0;0;5;0;311;2;0;0;0;0;0;6;0;115;2;0;0;0;0;0;7;0;15;0;0;0;0;8;0;28;0;0;0;0;9;0;10;0;0;0;0
04.01.19;20:25:00;1;352;11129;0;2;0;16;0;0;0;0;3;0;8;0;0;0;0;4;0;5;0;0;0;0;5;0;311;2;0;0;0;0;0;6;0;115;2;0;0;0;0;0;7;0;15;0;0;0;0;8;0;28;0;0;0;0;9;0;10;0;0;0;0
04.01.19;20:20:00;1;605;11100;0;2;0;16;0;0;0;0;3;0;8;0;0;0;0;4;0;5;0;0;0;0;5;0;311;2;0;0;0;0;0;6;0;115;2;0;0;0;0;0;7;0;15;0;0;0;0;8;0;28;0;0;0;0;9;0;10;0;0;0;0
04.01.19;20:15:00;1;370;11036;0;2;0;16;0;0;0;0;3;0;8;0;0;0;0;4;0;5;0;0;0;0;5;0;311;2;0;0;0;0;0;6;0;115;2;0;0;0;0;0;7;0;15;0;0;0;0;8;0;28;0;0;0;0;9;0;10;0;0;0;0
04.01.19;20:10:00;1;493;11005;0;2;0;16;0;0;0;0;3;0;8;0;0;0;0;4;0;5;0;0;0;0;5;0;311;2;0;0;0;0;0;6;0;115;2;0;0;0;0;0;7;0;15;0;0;0;0;8;0;28;0;0;0;0;9;0;10;0;0;0;0
04.01.19;20:05:00;1;979;10964;0;2;0;16;0;0;0;0;3;0;8;0;0;0;0;4;0;5;0;0;0;0;5;0;311;2;0;0;0;0;0;6;0;115;2;0;0;0;0;0;7;0;15;0;0;0;0;8;0;28;0;0;0;0;9;0;10;0;0;0;0
04.01.19;20:00:00;1;531;10894;0;2;0;16;0;0;0;0;3;0;8;0;0;0;0;4;0;5;0;0;0;0;5;0;311;2;0;0;0;0;0;6;0;115;2;0;0;0;0;0;7;0;15;0;0;0;0;8;0;28;0;0;0;0;9;0;10;0;0;0;0
04.01.19;19:55:00;1;412;10849;0;2;0;16;0;0;0;0;3;0;8;0;0;0;0;4;0;5;0;0;0;0;5;0;311;2;0;0;0;0;0;6;0;115;2;0;0;0;0;0;7;0;15;0;0;0;0;8;0;28;0;0;0;0;9;0;10;0;0;0;0
04.01.19;19:50:00;1;719;10813;0;2;0;16;0;0;0;0;3;0;8;0;0;0;0;4;0;5;0;0;0;0;5;0;311;2;0;0;0;0;0;6;0;115;2;0;0;0;0;0;7;0;15;0;0;0;0;8;0;28;0;0;0;0;9;0;10;0;0;0;0
04.01.19;19:45:00;1;493;10742;0;2;0;16;0;0;0;0;3;0;8;0;0;0;0;4;0;5;0;0;0;0;5;0;311;2;0;0;0;0;0;6;0;115;2;0;0;0;0;0;7;0;15;0;0;0;0;8;0;28;0;0;0;0;9;0;10;0;0;0;0
04.01.19;19:40:00;1;488;10701;0;2;0;16;0;0;0;0;3;0;8;0;0;0;0;4;0;5;0;0;0;0;5;0;311;2;0;0;0;0;0;6;0;115;2;0;0;0;0;0;7;0;15;0;0;0;0;8;0;28;0;0;0;0;9;0;10;0;0;0;0
04.01.19;19:35:00;1;492;10660;0;2;0;16;0;0;0;0;3;0;8;0;0;0;0;4;0;5;0;0;0;0;5;0;311;2;0;0;0;0;0;6;0;115;2;0;0;0;0;0;7;0;15;0;0;0;0;8;0;28;0;0;0;0;9;0;10;0;0;0;0
04.01.19;19:30:00;1;740;10619;0;2;0;16;0;0;0;0;3;0;8;0;0;0;0;4;0;5;0;0;0;0;5;0;311;2;0;0;0;0;0;6;0;115;2;0;0;0;0;0;7;0;15;0;0;0;0;8;0;28;0;0;0;0;9;0;10;0;0;0;0
04.01.19;19:25:00;1;636;10545;0;2;0;16;0;0;0;0;3;0;8;0;0;0;0;4;0;5;0;0;0;0;5;0;311;2;0;0;0;0;0;6;0;115;2;0;0;0;0;0;7;0;15;0;0;0;0;8;0;28;0;0;0;0;9;0;10;0;0;0;0
04.01.19;19:20:00;1;625;10492;0;2;0;16;0;0;0;0;3;0;8;0;0;0;0;4;0;5;0;0;0;0;5;0;311;2;0;0;0;0;0;6;0;115;2;0;0;0;0;0;7;0;15;0;0;0;0;8;0;28;0;0;0;0;9;0;10;0;0;0;0
04.01.19;19:15:00;1;815;10440;0;2;0;16;0;0;0;0;3;0;8;0;0;0;0;4;0;5;0;0;0;0;5;0;311;2;0;0;0;0;0;6;0;115;2;0;0;0;0;0;7;0;15;0;0;0;0;8;0;28;0;0;0;0;9;0;10;0;0;0;0
04.01.19;19:10:00;1;608;10363;0;2;0;16;0;0;0;0;3;0;8;0;0;0;0;4;0;5;0;0;0;0;5;0;311;2;0;0;0;0;0;6;0;115;2;0;0;0;0;0;7;0;15;0;0;0;0;8;0;28;0;0;0;0;9;0;10;0;0;0;0
04.01.19;19:05:00;1;608;10312;0;2;0;16;0;0;0;0;3;0;8;0;0;0;0;4;0;5;0;0;0;0;5;0;311;2;0;0;0;0;0;6;0;115;2;0;0;0;0;0;7;0;15;0;0;0;0;8;0;28;0;0;0;0;9;0;10;0;0;0;0
04.01.19;19:00:00;1;1062;10261;0;2;0;16;0;0;0;0;3;0;8;0;0;0;0;4;0;5;0;0;0;0;5;0;311;2;0;0;0;0;0;6;0;115;2;0;0;0;0;0;7;0;15;0;0;0;0;8;0;28;0;0;0;0;9;0;10;0;0;0;0
04.01.19;18:55:00;1;669;10181;0;2;0;16;0;0;0;0;3;0;8;0;0;0;0;4;0;5;0;0;0;0;5;0;311;2;0;0;0;0;0;6;0;115;2;0;0;0;0;0;7;0;15;0;0;0;0;8;0;28;0;0;0;0;9;0;10;0;0;0;0
04.01.19;18:50:00;1;748;10123;0;2;0;16;0;0;0;0;3;0;8;0;0;0;0;4;0;5;0;0;0;0;5;0;311;2;0;0;0;0;0;6;0;115;2;0;0;0;0;0;7;0;15;0;0;0;0;8;0;28;0;0;0;0;9;0;10;0;0;0;0
04.01.19;18:45:00;1;752;10059;0;2;0;16;0;0;0;0;3;0;8;0;0;0;0;4;0;5;0;0;0;0;5;0;311;2;0;0;0;0;0;6;0;115;2;0;0;0;0;0;7;0;15;0;0;0;0;8;0;28;0;0;0;0;9;0;10;0;0;0;0
04.01.19;18:40:00;1;1079;9990;0;2;0;16;0;0;0;0;3;0;8;0;0;0;0;4;0;5;0;0;0;0;5;0;311;2;0;0;0;0;0;6;0;115;2;0;0;0;0;0;7;0;15;0;0;0;0;8;0;28;0;0;0;0;9;0;10;0;0;0;0
04.01.19;18:35:00;1;725;9909;0;2;0;16;0;0;0;0;3;0;8;0;0;0;0;4;0;5;0;0;0;0;5;0;311;2;0;0;0;0;0;6;0;115;2;0;0;0;0;0;7;0;15;0;0;0;0;8;0;28;0;0;0;0;9;0;10;0;0;0;0
04.01.19;18:30:00;1;682;9849;0;2;0;16;0;0;0;0;3;0;8;0;0;0;0;4;0;5;0;0;0;0;5;0;311;2;0;0;0;0;0;6;0;115;2;0;0;0;0;0;7;0;15;0;0;0;0;8;0;28;0;0;0;0;9;0;10;0;0;0;0
04.01.19;18:25:00;1;1147;9792;0;2;0;16;0;0;0;0;3;0;8;0;0;0;0;4;0;5;0;0;0;0;5;0;311;2;0;0;0;0;0;6;0;115;2;0;0;0;0;0;7;0;15;0;0;0;0;8;0;28;0;0;0;0;9;0;10;0;0;0;0
04.01.19;18:20:00;1;752;9703;0;2;0;16;0;0;0;0;3;0;8;0;0;0;0;4;0;5;0;0;0;0;5;0;311;2;0;0;0;0;0;6;0;115;2;0;0;0;0;0;7;0;15;0;0;0;0;8;0;28;0;0;0;0;9;0;10;0;0;0;0
04.01.19;18:15:00;1;735;9640;0;2;0;16;0;0;0;0;3;0;8;0;0;0;0;4;0;5;0;0;0;0;5;0;311;2;0;0;0;0;0;6;0;115;2;0;0;0;0;0;7;0;15;0;0;0;0;8;0;28;0;0;0;0;9;0;10;0;0;0;0
04.01.19;18:10:00;1;1062;9579;0;2;0;16;0;0;0;0;3;0;8;0;0;0;0;4;0;5;0;0;0;0;5;0;311;2;0;0;0;0;0;6;0;115;2;0;0;0;0;0;7;0;15;0;0;0;0;8;0;28;0;0;0;0;9;0;10;0;0;0;0
04.01.19;18:05:00;1;690;9498;0;2;0;16;0;0;0;0;3;0;8;0;0;0;0;4;0;5;0;0;0;0;5;0;311;2;0;0;0;0;0;6;0;115;2;0;0;0;0;0;7;0;15;0;0;0;0;8;0;28;0;0;0;0;9;0;10;0;0;0;0
04.01.19;18:00:00;1;658;9441;0;2;0;16;0;0;0;0;3;0;8;0;0;0;0;4;0;5;0;0;0;0;5;0;311;2;0;0;0;0;0;6;0;115;2;0;0;0;0;0;7;0;15;0;0;0;0;8;0;28;0;0;0;0;9;0;10;0;0;0;0
04.01.19;17:55:00;1;875;9386;0;2;0;16;0;0;0;0;3;0;8;0;0;0;0;4;0;5;0;0;0;0;5;0;311;2;0;0;0;0;0;6;0;115;2;0;0;0;0;0;7;0;15;0;0;0;0;8;0;28;0;0;0;0;9;0;10;0;0;0;0
04.01.19;17:50:00;1;689;9303;0;2;0;16;0;0;0;0;3;0;8;0;0;0;0;4;0;5;0;0;0;0;5;0;311;2;0;0;0;0;0;6;0;115;2;0;0;0;0;0;7;0;15;0;0;0;0;8;0;28;0;0;0;0;9;0;10;0;0;0;0
04.01.19;17:45:00;1;2278;9246;0;2;0;16;0;0;0;0;3;0;8;0;0;0;0;4;0;5;0;0;0;0;5;0;311;2;0;0;0;0;0;6;0;115;2;0;0;0;0;0;7;0;15;0;0;0;0;8;0;28;0;0;0;0;9;0;10;0;0;0;0
04.01.19;17:40:00;1;2506;9044;0;2;0;16;0;0;0;0;3;0;8;0;0;0;0;4;0;5;0;0;0;0;5;0;311;2;0;0;0;0;0;6;0;115;2;0;0;0;0;0;7;0;15;0;0;0;0;8;0;28;0;0;0;0;9;0;10;0;0;0;0
04.01.19;17:35:00;1;2746;8827;0;2;0;16;0;0;0;0;3;0;8;0;0;0;0;4;0;5;0;0;0;0;5;0;311;2;0;0;0;0;0;6;0;115;2;0;0;0;0;0;7;0;15;0;0;0;0;8;0;28;0;0;0;0;9;0;10;0;0;0;0
04.01.19;17:30:00;1;1316;8599;0;2;0;16;0;0;0;0;3;0;8;0;0;0;0;4;0;5;0;0;0;0;5;0;311;2;0;0;0;0;0;6;0;115;2;0;0;0;0;0;7;0;15;0;0;0;0;8;0;28;0;0;0;0;9;0;10;0;0;0;0
04.01.19;17:25:00;1;1422;8500;0;2;0;16;0;0;0;0;3;0;8;0;0;0;0;4;0;5;0;0;0;0;5;0;311;2;0;0;0;0;0;6;0;115;2;0;0;0;0;0;7;0;15;0;0;0;0;8;0;28;0;0;0;0;9;0;10;0;0;0;0
04.01.19;17:20:00;1;1034;8388;0;2;0;16;0;0;0;0;3;0;8;0;0;0;0;4;0;5;0;0;0;0;5;0;311;2;0;0;0;0;0;6;0;115;2;0;0;0;0;0;7;0;15;0;0;0;0;8;0;28;0;0;0;0;9;0;10;0;0;0;0
04.01.19;17:15:00;1;642;8311;0;2;0;16;0;0;0;0;3;0;8;0;0;0;0;4;0;5;0;0;0;0;5;0;311;2;0;0;0;0;0;6;0;115;2;0;0;0;0;0;7;0;15;0;0;0;0;8;0;28;0;0;0;0;9;0;10;0;0;0;0
04.01.19;17:10:00;1;2526;8242;0;2;0;16;0;0;0;0;3;0;8;0;0;0;0;4;0;5;0;0;0;0;5;0;311;2;0;0;0;0;0;6;0;115;2;0;0;0;0;0;7;0;15;0;0;0;0;8;0;28;0;0;0;0;9;0;10;0;0;0;0
04.01.19;17:05:00;1;995;8031;0;2;0;16;0;0;0;0;3;0;8;0;0;0;0;4;0;5;0;0;0;0;5;0;311;2;0;0;0;0;0;6;0;115;2;0;0;0;0;0;7;0;15;0;0;0;0;8;0;28;0;0;0;0;9;0;10;0;0;0;0
04.01.19;17:00:00;1;1833;7949;0;2;0;16;0;0;0;0;3;0;8;0;0;0;0;4;0;5;0;0;0;0;5;0;311;2;0;0;0;0;0;6;0;115;2;0;0;0;0;0;7;0;15;0;0;0;0;8;0;28;0;0;0;0;9;0;10;0;0;0;0
04.01.19;16:55:00;1;1207;7772;0;2;0;16;0;0;0;0;3;0;8;0;0;0;0;4;0;5;0;0;0;0;5;0;311;2;0;0;0;0;0;6;0;115;2;0;0;0;0;0;7;0;15;0;0;0;0;8;0;28;0;0;0;0;9;0;10;0;0;0;0
04.01.19;16:50:00;1;2610;7637;0;2;0;16;0;0;0;0;3;0;8;0;0;0;0;4;0;5;0;0;0;0;5;0;311;2;0;0;0;0;0;6;0;115;2;0;0;0;0;0;7;0;15;0;0;0;0;8;0;28;0;0;0;0;9;0;10;0;0;0;0
04.01.19;16:45:00;1;3103;7417;0;2;0;16;0;0;0;0;3;0;8;0;0;0;0;4;0;5;0;0;0;0;5;0;311;2;0;0;0;0;0;6;0;115;2;0;0;0;0;0;7;0;15;0;0;0;0;8;0;28;0;0;0;0;9;0;10;0;0;0;0
04.01.19;16:40:00;1;615;7188;0;2;0;16;0;0;0;0;3;0;8;0;0;0;0;4;0;5;0;0;0;0;5;0;311;2;0;0;0;0;0;6;0;115;2;0;0;0;0;0;7;0;15;0;0;0;0;8;0;28;0;0;0;0;9;0;10;0;0;0;0
04.01.19;16:35:00;1;570;7138;0;2;0;16;0;0;0;0;3;0;8;0;0;0;0;4;0;5;0;0;0;0;5;0;311;2;0;0;0;0;0;6;0;115;2;0;0;0;0;0;7;0;15;0;0;0;0;8;0;28;0;0;0;0;9;0;10;0;0;0;0
04.01.19;16:30:00;1;980;7090;0;2;0;16;0;0;0;0;3;0;8;0;0;0;0;4;0;5;0;0;0;0;5;0;311;2;0;0;0;0;0;6;0;115;2;0;0;0;0;0;7;0;15;0;0;0;0;8;0;28;0;0;0;0;9;0;10;0;0;0;0
04.01.19;16:25:00;1;631;7013;0;2;0;16;0;0;0;0;3;0;8;0;0;0;0;4;0;5;0;0;0;0;5;0;311;2;0;0;0;0;0;6;0;115;2;0;0;0;0;0;7;0;15;0;0;0;0;8;0;28;0;0;0;0;9;0;10;0;0;0;0
04.01.19;16:20:00;1;634;6960;0;2;0;16;0;0;0;0;3;0;8;0;0;0;0;4;0;5;0;0;0;0;5;0;311;2;0;0;0;0;0;6;0;115;2;0;0;0;0;0;7;0;15;0;0;0;0;8;0;28;0;0;0;0;9;0;10;0;0;0;0
04.01.19;16:15:00;1;827;6907;0;2;0;16;0;0;0;0;3;0;8;0;0;0;0;4;0;5;0;0;0;0;5;0;311;2;0;0;0;0;0;6;0;115;2;0;0;0;0;0;7;0;15;0;0;0;0;8;0;28;0;0;0;0;9;0;10;0;0;0;0
04.01.19;16:10:00;1;675;6829;0;2;0;16;0;0;0;0;3;0;8;0;0;0;0;4;0;5;0;0;0;0;5;0;311;2;0;0;0;0;0;6;0;115;2;0;0;0;0;0;7;0;15;0;0;0;0;8;0;28;0;0;0;0;9;0;10;0;0;0;0
04.01.19;16:05:00;1;561;6778;0;2;0;16;0;0;84;2;3;0;8;0;0;213;8;4;0;5;0;0;0;0;5;0;311;2;0;0;0;0;0;6;0;115;0;0;0;0;0;0;7;0;15;0;0;0;0;8;0;28;0;0;0;0;9;0;10;0;0;0;0
04.01.19;16:00:00;1;515;6733;0;2;0;16;6;0;271;6;3;0;8;6;0;285;10;4;0;5;0;0;0;0;5;0;311;2;0;0;0;0;0;6;0;115;2;0;0;0;0;0;7;0;15;0;0;0;0;8;0;28;0;0;0;0;9;0;10;0;0;0;0
04.01.19;15:55:00;1;832;6690;0;2;0;16;6;0;294;6;3;0;8;6;0;303;10;4;0;5;0;0;41;0;5;0;311;2;0;0;0;0;0;6;0;115;2;0;0;0;0;0;7;0;15;0;0;0;0;8;0;28;0;0;0;0;9;0;10;6;0;273;5
04.01.19;15:50:00;1;573;6616;0;2;0;16;6;0;331;6;3;0;8;6;0;376;10;4;0;5;1;0;98;1;5;0;311;2;0;2;64;63;4;6;0;115;2;0;0;0;0;3;7;0;15;6;0;306;8;8;0;28;6;0;305;7;9;0;10;6;0;352;5
04.01.19;15:45:00;1;579;6568;0;2;0;16;6;0;357;6;3;0;8;6;0;406;10;4;0;5;1;0;127;1;5;0;311;1;0;1;302;300;14;6;0;115;1;5;3;154;335;11;7;0;15;6;0;358;8;8;0;28;6;0;359;7;9;0;10;6;0;393;5
04.01.19;15:40:00;1;781;6520;0;2;0;16;6;0;372;6;3;0;8;6;0;431;10;4;0;5;1;0;148;2;5;0;311;23;0;1;379;376;14;6;0;115;23;8;7;181;506;12;7;0;15;6;0;395;8;8;0;28;6;0;397;7;9;1;10;6;0;422;5
04.01.19;15:35:00;1;537;6447;0;2;0;16;6;0;375;6;3;0;8;6;0;434;10;4;0;5;1;0;152;2;5;0;311;23;0;3;384;382;14;6;0;115;23;8;4;392;315;12;7;0;15;6;0;400;8;8;0;28;6;0;402;7;9;0;10;6;0;441;5
04.01.19;15:30:00;1;679;6402;0;2;0;16;6;0;385;6;3;0;8;6;1;449;10;4;0;5;1;0;169;2;5;0;311;23;0;2;402;431;14;6;0;115;23;6;4;305;422;12;7;0;15;3;0;401;8;8;0;28;6;0;414;7;9;0;10;6;0;468;5
04.01.19;15:25:00;1;1664;6346;0;2;0;16;6;0;385;6;3;0;8;4;2;443;10;4;0;5;1;0;169;2;5;0;311;26;0;1;406;451;15;6;0;115;23;5;5;181;543;12;7;0;15;6;0;409;8;8;0;28;6;0;412;7;9;0;10;4;0;461;5
04.01.19;15:20:00;1;3233;6158;0;2;0;16;6;0;389;6;3;0;8;3;3;419;10;4;0;5;1;0;176;2;5;0;311;26;0;3;407;430;15;6;0;115;23;6;3;440;301;12;7;0;15;6;0;405;8;8;0;28;6;0;410;7;9;0;10;3;1;442;5
04.01.19;15:15:00;1;2674;5908;0;2;0;16;6;0;395;6;3;0;8;6;2;459;10;4;0;5;1;0;187;2;5;0;311;26;0;4;413;422;15;6;0;115;23;6;4;339;409;12;7;0;15;6;0;429;8;8;0;28;6;0;432;7;9;2;10;6;1;458;5
04.01.19;15:10:00;1;2674;5684;0;2;0;16;6;0;399;6;3;0;8;6;1;470;10;4;0;5;1;0;193;2;5;0;311;26;0;4;419;447;15;6;0;115;23;5;6;245;565;12;7;0;15;6;0;438;8;8;0;28;6;0;441;7;9;0;10;6;0;497;5
04.01.19;15:05:00;1;775;5465;0;2;0;16;6;0;404;6;3;0;8;6;2;457;10;4;0;5;1;0;203;2;5;7;311;26;2;3;415;604;15;6;0;115;23;5;5;182;573;12;7;0;15;6;2;446;8;8;0;28;4;2;447;7;9;1;10;6;1;493;5
04.01.19;15:00:00;1;227;5377;0;2;0;16;6;0;407;6;3;0;8;6;1;482;10;4;0;5;1;0;198;2;5;7;310;26;1;2;419;627;15;6;0;115;23;5;3;186;579;12;7;0;15;4;1;448;8;8;1;28;3;3;436;7;9;0;10;6;1;517;5
04.01.19;14:55:00;1;255;5358;0;2;0;16;6;0;404;6;3;0;8;6;0;493;10;4;0;5;1;0;203;2;5;0;309;23;0;4;425;580;15;6;0;115;23;9;8;182;573;12;7;0;15;3;4;424;8;8;0;28;6;3;428;7;9;0;10;6;0;505;5
04.01.19;14:50:00;1;265;5337;0;2;0;16;6;0;405;6;3;1;8;3;3;459;10;4;0;5;1;0;194;2;5;6;309;1;1;5;416;588;15;6;0;115;23;10;9;182;576;12;7;0;15;6;1;447;8;8;0;28;6;1;449;7;9;1;10;3;1;486;5
04.01.19;14:45:00;1;555;5315;0;2;0;16;6;0;406;6;3;0;8;6;2;476;10;4;0;5;1;0;210;2;5;8;309;26;2;3;417;627;15;6;0;115;23;5;4;182;578;13;7;0;15;6;2;449;8;8;0;28;6;2;450;7;9;3;10;6;3;479;5
04.01.19;14:40:00;1;278;5266;0;2;0;16;6;0;406;6;3;1;8;6;1;480;10;4;0;5;1;0;211;2;5;6;308;26;1;2;419;638;15;6;0;115;23;5;5;182;579;13;7;1;15;6;1;455;8;8;0;28;6;1;457;7;9;1;9;6;1;517;5
04.01.19;14:35:00;1;224;5245;0;2;0;16;6;0;407;6;3;0;8;6;3;479;10;4;0;5;1;0;212;3;5;0;308;26;0;0;430;660;15;6;0;115;23;6;3;433;340;13;7;0;14;6;2;456;8;8;0;28;6;0;479;7;9;2;9;6;1;507;5
04.01.19;14:30:00;1;237;5226;0;2;0;16;6;0;405;6;3;0;8;6;1;469;10;4;0;5;1;0;208;3;5;3;307;4;0;2;425;629;15;6;0;115;23;5;3;389;378;13;7;2;14;6;1;454;8;8;2;28;3;3;436;7;9;1;9;6;1;513;5
04.01.19;14:25:00;1;859;5204;0;2;0;16;6;0;407;6;3;0;8;6;0;505;10;4;0;5;1;0;212;3;5;9;306;4;2;1;421;639;15;6;0;115;23;6;5;200;579;13;7;0;14;4;2;455;8;8;0;28;6;2;455;7;9;0;9;6;0;541;5
04.01.19;14:20:00;1;280;5155;0;2;0;16;6;0;405;6;3;1;8;4;4;453;10;4;0;5;1;0;197;3;5;6;306;4;1;5;417;555;15;6;0;115;23;5;5;182;575;13;7;2;14;6;3;439;8;8;0;28;6;1;458;7;9;1;9;3;2;495;5
04.01.19;14:15:00;1;280;5131;0;2;0;16;6;0;409;6;3;2;8;3;4;456;10;4;0;5;1;0;215;3;5;14;306;1;3;5;411;632;16;6;0;115;23;6;5;351;420;13;7;0;14;6;2;462;8;8;0;28;6;2;464;7;9;1;9;6;2;521;5
04.01.19;14:10:00;1;519;5108;0;2;0;16;6;0;411;6;3;0;7;6;1;486;10;4;0;5;1;0;209;3;5;7;305;1;2;4;420;641;16;6;0;115;23;5;4;394;381;13;7;1;14;6;1;466;8;8;1;28;6;1;466;7;9;1;9;6;2;528;5
04.01.19;14:05:00;1;283;5058;0;2;2;16;6;4;405;6;3;3;7;6;7;461;10;4;0;5;3;0;204;3;5;17;304;1;3;8;421;644;16;6;0;115;23;6;5;182;591;13;7;1;14;6;5;448;8;8;0;28;6;2;476;7;9;2;9;6;3;535;5
04.01.19;14:00:00;1;282;5034;0;2;2;16;6;2;405;6;3;0;7;6;2;494;10;4;0;5;1;0;225;3;5;8;303;1;2;3;424;659;16;6;0;115;23;3;3;233;589;14;7;0;14;6;1;481;8;8;0;28;4;7;452;7;9;3;8;6;4;511;5
04.01.19;13:55:00;1;295;5011;0;2;3;15;6;4;405;6;3;0;7;6;3;493;10;4;0;5;3;0;194;3;5;18;302;1;5;5;417;637;16;6;0;115;23;4;4;182;591;14;7;0;14;4;4;475;8;8;3;28;3;5;455;7;9;0;8;6;0;566;5
04.01.19;13:50:00;1;526;4986;0;2;0;15;6;0;413;6;3;0;7;6;2;485;10;4;0;5;1;0;223;3;5;12;302;1;1;2;421;651;17;6;0;115;23;6;5;317;587;14;7;0;14;3;3;453;8;8;0;27;6;1;474;7;9;4;8;4;4;508;5
04.01.19;13:45:00;1;268;4937;0;2;2;15;6;4;408;6;3;2;7;3;6;468;10;4;0;5;3;0;203;4;5;26;301;1;8;7;415;654;17;6;0;115;23;4;2;377;595;14;7;1;14;6;5;478;8;8;0;27;6;5;477;7;9;2;8;6;4;540;5
04.01.19;13:40:00;1;264;4915;0;2;0;15;6;0;427;6;3;1;7;6;4;512;10;4;0;5;3;0;220;4;5;71;298;4;21;24;379;601;18;6;0;115;8;6;2;441;603;14;7;3;14;6;4;501;8;8;0;27;6;4;500;7;9;2;7;6;7;533;5
04.01.19;13:35:00;1;226;4893;0;2;7;15;3;14;403;6;3;2;7;6;5;513;10;4;0;5;3;0;219;4;5;83;292;4;29;24;379;601;18;6;0;115;8;4;2;504;608;15;7;9;13;6;18;471;8;8;3;27;6;9;503;7;9;1;7;6;6;563;5
04.01.19;13:30:00;1;466;4861;0;2;2;14;6;5;421;6;3;2;7;6;4;519;10;4;0;5;3;0;216;4;5;85;285;4;28;22;379;601;18;6;0;115;8;4;1;493;608;15;7;0;13;6;7;509;8;8;3;27;4;7;501;7;9;2;7;6;5;566;5
04.01.19;13:25:00;1;225;4828;0;2;3;14;6;7;417;6;3;1;6;6;5;515;10;4;0;5;3;0;218;4;5;83;278;4;29;30;379;601;18;6;0;115;8;7;5;542;608;15;7;0;13;6;0;529;8;8;6;27;3;18;476;7;9;0;7;6;0;594;5
04.01.19;13:20:00;1;225;4809;0;2;2;14;6;5;417;6;3;2;6;6;4;518;10;4;0;5;3;0;199;4;5;82;271;4;26;22;379;601;17;6;0;115;8;5;2;527;607;15;7;9;13;3;14;485;8;8;0;26;6;7;508;7;9;3;7;4;10;541;5
04.01.19;13:15:00;1;800;4791;0;2;3;14;6;7;415;6;3;2;6;3;5;496;10;4;0;5;3;0;227;3;5;79;264;4;25;19;379;601;17;6;0;115;23;7;4;533;606;15;7;9;12;6;16;470;8;8;5;26;6;18;471;7;9;1;7;3;6;565;5
04.01.19;13:10:00;1;225;4745;0;2;3;14;6;5;420;6;3;0;6;6;4;520;10;4;1;5;3;1;200;4;5;83;257;4;30;25;379;601;17;6;0;115;23;6;2;499;610;15;7;4;11;6;8;510;8;8;1;25;6;8;514;7;9;2;7;6;6;556;5
04.01.19;13:05:00;1;226;4726;0;2;7;13;3;17;403;6;3;0;6;6;6;520;10;4;6;5;3;6;200;3;5;94;250;4;36;29;379;601;17;6;0;115;8;6;2;493;613;15;7;0;11;6;9;510;8;8;4;25;6;11;515;7;9;3;6;6;7;576;5
04.01.19;13:00:00;1;226;4707;0;2;2;13;6;5;417;6;3;2;6;6;4;500;10;4;0;5;3;0;227;3;5;88;242;4;31;27;379;601;17;6;0;115;8;6;4;497;610;16;7;3;11;6;15;487;8;8;5;25;6;10;520;7;9;1;6;6;6;582;5
04.01.19;12:55:00;1;519;4688;0;2;2;12;6;5;411;6;3;1;6;6;5;509;10;4;0;5;3;0;232;3;5;74;235;4;23;19;379;601;17;6;0;115;23;6;2;470;605;16;7;0;10;6;0;528;8;8;11;25;3;18;478;7;9;2;6;6;6;573;5
04.01.19;12:50:00;1;265;4644;0;2;3;12;6;9;402;6;3;1;6;6;3;513;10;4;0;5;3;0;221;3;5;73;229;4;22;25;379;601;17;6;0;115;23;5;4;474;604;16;7;4;10;3;9;480;8;8;1;23;6;8;512;7;9;2;6;4;9;543;5
04.01.19;12:45:00;1;267;4622;0;2;3;12;6;7;416;6;3;2;5;4;4;518;10;4;5;5;3;5;208;4;5;89;223;4;31;25;379;601;17;6;55;115;4;25;32;465;442;17;7;0;10;6;9;505;8;8;4;23;6;9;516;7;9;5;6;3;13;548;5
04.01.19;12:40:00;1;512;4599;0;2;3;12;6;7;420;6;3;0;5;6;5;523;10;4;0;4;3;0;200;3;5;94;215;4;34;31;379;601;17;6;58;110;4;30;37;465;443;17;7;1;10;6;7;514;8;8;30;23;6;45;423;7;9;3;5;6;6;589;5
04.01.19;12:35:00;1;291;4550;0;2;4;11;4;8;418;6;3;0;5;6;6;523;10;4;0;4;3;0;199;3;5;98;207;4;37;38;379;601;17;6;65;105;4;35;43;465;442;17;7;6;10;6;9;513;7;8;55;21;4;76;363;7;9;4;5;6;8;584;5
04.01.19;12:30:00;1;225;4530;0;2;4;11;6;8;422;6;3;1;5;6;10;503;10;4;1;4;3;1;200;3;5;108;199;4;43;38;379;601;17;6;68;100;4;21;26;465;442;16;7;5;9;6;15;490;7;8;59;16;4;80;364;7;9;5;4;6;7;596;5
04.01.19;12:25:00;1;225;4511;0;2;6;11;6;10;421;6;3;1;5;6;6;528;10;4;3;4;3;3;200;3;5;107;190;4;46;34;379;601;17;6;73;94;4;35;37;464;442;16;7;0;9;6;0;542;7;8;48;11;4;76;366;7;9;2;4;6;7;586;5
04.01.19;12:20:00;1;616;4493;0;2;10;10;6;17;411;6;3;0;5;6;5;534;10;4;5;4;3;6;200;3;5;111;181;4;47;40;379;601;17;6;72;88;4;33;35;464;442;16;7;10;9;4;15;496;7;8;29;7;4;49;437;7;9;3;4;6;7;585;5